RH
97 97 98 100 88 98 98 98 98 97 95 98 98 95 64 89 88 65 61 54 48 40 38 37 40 40 72 80 66 64 60 65 53 53 49 60 63 71 72 92 63 67 61 56
95 92 95 95 96 96 97 96 97 99 98 97 73 61 72 93 93 89 73 60 54 41 41 45 41 56 84 87 68 57 66 63 54 47 43 49 53 54 56 55 62 56 67 67
94 90 88 89 88 94 94 95 98 97 99 98 97 94 76 100 88 88 74 63 52 56 55 48 46 54 76 66 65 61 64 64 53 48 34 49 51 61 58 70 70 57 54 46
81 81 91 82 67 81 90 94 96 99 96 97 98 97 97 99 95 75 78 77 62 59 60 55 52 63 93 80 60 54 48 66 65 62 64 61 55 48 47 49 53 62 69 48
67 49 67 64 62 56 67 93 97 85 98 94 98 96 96 95 98 64 52 76 90 78 72 72 64 59 75 87 83 85 83 90 79 72 75 72 63 29 40 38 37 38 38 38
17 35 48 40 51 54 40 68 83 75 88 98 90 96 96 94 93 93 99 90 96 96 97 87 76 89 87 93 93 96 78 83 84 73 62 60 66 60 54 47 44 41 40 41
10 14 17 22 35 32 48 61 86 90 80 74 68 87 75 93 84 97 96 91 90 84 92 92 75 71 64 55 41 49 72 80 78 72 52 64 39 33 32 31 31 30 30 33
8 8 8 16 35 52 85 98 79 71 73 82 94 98 93 95 96 82 88 94 91 88 93 88 48 27 30 12 10 36 43 52 59 62 48 36 30 28 26 27 28 28 27 28
12 10 10 10 15 37 53 79 71 57 68 91 90 92 76 84 80 87 81 93 80 52 60 29 49 37 39 33 36 34 36 44 56 59 56 51 33 36 33 35 42 44 42 65
21 18 16 14 14 18 36 50 14 16 54 72 74 74 74 82 76 85 93 72 39 18 18 49 62 45 32 30 34 31 32 42 46 52 57 50 39 45 46 50 57 62 60 68
28 28 27 27 25 21 18 21 18 18 18 33 33 65 71 68 70 83 76 45 38 24 26 76 73 67 55 43 40 38 37 38 44 61 61 65 53 58 60 66 71 90 70 65
58 45 36 34 32 33 32 31 30 30 28 26 24 24 31 53 71 75 85 62 86 58 56 76 68 68 55 52 55 48 48 46 46 45 55 61 62 59 48 76 95 77 80 84
43 55 43 41 41 41 39 38 40 40 39 41 41 36 36 35 33 38 76 94 84 98 97 83 90 92 76 61 53 53 53 52 69 60 46 52 46 46 57 77 73 95 74 48
52 52 51 51 51 52 51 52 48 45 42 41 76 38 33 32 33 35 40 49 91 90 98 96 92 88 88 75 68 65 68 75 69 84 75 74 71 62 66 72 70 72 71 52
75 66 66 65 61 54 48 46 47 47 43 60 83 55 36 30 29 30 31 31 32 44 56 69 75 69 89 81 77 67 67 62 61 59 54 68 69 66 62 67 58 59 49 54
87 81 80 80 75 69 64 61 57 46 38 37 30 60 43 40 29 24 24 25 33 54 65 71 86 90 94 97 88 48 79 73 70 66 61 66 52 59 50 42 69 74 47 72
94 89 89 84 84 79 79 78 73 66 62 73 64 78 86 54 73 61 62 62 75 88 94 87 86 87 98 94 94 65 68 81 74 69 70 86 86 78 80 90 62 63 86 89
96 97 98 97 91 83 76 67 62 59 52 80 90 97 87 84 72 79 78 82 87 82 84 89 91 85 95 95 51 60 94 91 87 71 58 70 66 56 33 22 59 96 97 94
98 94 94 83 79 69 58 45 29 40 90 94 92 100 92 96 80 81 85 90 92 84 83 85 100 95 94 52 82 94 93 92 91 97 98 85 84 59 68 77 96 97 95 97
92 89 81 57 44 25 25 63 85 99 89 90 77 80 97 92 99 97 94 97 98 100 83 86 97 80 54 56 59 88 92 95 99 90 85 96 97 96 96 95 94 97 95 89
75 59 44 43 90 86 94 98 97 91 97 76 70 64 89 95 86 93 97 94 95 95 97 95 92 69 92 81 86 97 94 90 88 90 93 97 97 95 93 92 81 47 35 44
47 43 91 76 95 96 96 92 90 95 96 97 96 96 92 91 94 96 92 91 94 94 94 96 97 96 94 51 44 57 57 52 55 90 98 92 99 90 98 95 60 48 37 39
50 73 93 94 90 97 87 95 96 96 91 67 77 73 91 89 85 76 58 80 82 93 89 86 83 94 69 46 58 63 61 42 44 55 60 62 88 82 56 54 58 45 45 47
66 91 96 85 87 78 94 92 93 83 72 58 35 45 74 84 89 47 84 82 78 94 85 76 89 79 57 54 54 62 65 66 67 71 63 60 55 48 48 50 42 51 89 84
97 95 91 88 73 78 66 62 64 64 50 53 42 61 78 96 96 60 47 95 99 89 79 84 67 48 40 33 38 50 64 66 67 72 63 47 45 46 51 51 57 87 80 55
94 78 59 54 58 54 40 32 40 35 47 58 76 84 96 93 91 98 87 86 77 82 92 77 50 49 35 27 28 24 26 35 35 40 69 78 77 71 65 62 65 84 68 28
84 68 63 41 45 78 96 93 89 95 94 92 89 94 97 93 93 96 93 89 89 93 74 60 58 51 35 28 26 29 28 22 19 19 21 54 86 84 83 72 81 76 56 18
Wind_Speed
59 39 48 51 44 35 36 45 40 39 36 37 41 45 46 26 16 21 13 20 22 20 22 24 23 24 20 16 14 10 16 11 18 18 13 7 9 13 14 11 14 17 18 33
18 17 17 16 23 26 29 33 23 31 33 36 39 43 41 26 23 15 17 18 15 18 21 18 21 13 15 15 10 11 9 8 12 15 19 14 12 14 16 23 25 30 17 21
11 14 21 19 21 25 32 31 31 22 44 43 44 44 43 35 31 20 15 14 15 15 16 19 14 13 14 15 15 17 16 11 12 16 14 3 13 14 20 19 19 21 26 28
19 21 22 23 21 25 27 38 29 22 28 33 30 34 25 34 26 27 21 21 25 21 18 18 19 13 10 15 23 23 23 17 18 20 17 16 18 23 26 26 27 28 29 30
18 18 21 23 24 24 33 33 26 32 17 21 31 14 18 21 17 23 27 26 21 19 20 18 22 21 19 12 15 15 14 14 15 24 18 17 23 36 33 31 31 34 36 39
12 15 19 21 24 27 30 38 31 25 22 19 25 21 18 16 22 23 26 29 21 22 18 18 17 14 19 11 16 14 15 14 12 25 12 13 23 29 29 29 28 30 35 38
14 14 15 18 21 22 24 28 26 19 19 19 21 16 20 19 26 24 18 28 31 25 21 21 18 19 19 20 23 22 14 14 15 22 13 12 31 28 25 28 29 29 31 32
9 12 13 16 22 24 24 25 24 20 19 19 12 20 20 17 12 8 13 11 16 18 16 12 12 11 13 22 22 20 20 19 16 12 14 18 30 26 19 23 26 26 29 30
12 13 14 14 17 21 23 23 19 18 16 15 16 15 15 17 14 16 19 19 25 21 20 19 11 10 11 8 6 9 22 25 25 22 18 10 36 18 14 18 27 24 22 19
14 15 15 15 15 17 20 24 17 14 18 15 17 14 20 14 17 19 17 21 19 18 19 14 11 15 12 15 14 14 18 22 31 31 23 23 37 27 20 22 21 22 21 21
13 13 14 15 15 15 17 20 18 17 18 12 18 20 20 16 15 13 14 15 16 19 19 12 13 12 14 17 23 24 25 24 24 26 27 22 17 18 21 19 20 22 18 20
11 10 11 14 15 15 15 16 15 14 17 16 18 18 21 23 20 17 17 16 12 16 13 15 12 20 20 20 26 23 30 29 27 30 29 26 22 22 25 27 22 17 21 17
15 14 12 12 13 13 13 14 14 13 11 11 14 15 17 18 18 22 21 18 16 15 17 19 21 18 16 22 26 25 26 24 26 29 38 35 35 34 28 26 28 20 27 28
14 14 14 14 13 11 9 9 9 9 9 10 7 13 16 19 22 24 26 26 21 24 19 22 26 25 17 24 25 27 26 21 25 27 32 24 30 27 27 24 29 28 27 29
14 14 13 11 10 8 7 7 7 7 8 6 8 11 12 16 18 18 21 24 26 29 30 29 34 32 26 30 30 39 29 34 32 38 36 27 30 26 26 32 34 37 33 28
14 13 11 10 8 7 6 6 7 7 7 9 9 11 11 15 20 22 22 23 26 27 29 33 33 30 25 23 34 38 29 32 36 40 37 33 38 39 39 37 29 29 28 27
16 12 11 12 9 7 6 6 7 6 5 4 6 4 6 5 10 12 15 17 19 19 24 34 34 33 25 35 46 39 32 25 25 27 28 33 32 31 27 27 32 31 27 26
17 14 15 13 10 10 11 11 11 10 8 7 4 4 8 10 10 11 9 11 14 21 25 30 30 29 30 41 47 41 32 30 31 32 33 38 34 34 34 29 33 26 29 24
22 18 15 14 14 13 12 11 10 10 9 5 7 7 7 13 12 9 11 14 16 16 23 28 29 31 29 41 31 23 18 20 20 18 26 28 29 23 23 27 7 6 3 9
15 14 13 9 8 9 8 8 10 9 13 17 20 13 12 8 7 6 8 9 9 11 18 7 24 34 32 37 37 31 25 19 19 20 12 12 8 3 9 11 2 4 7 15
15 13 9 6 3 6 4 4 5 4 5 8 6 10 17 14 14 13 7 6 6 6 9 10 6 20 16 10 13 8 18 22 13 4 11 19 5 5 4 5 9 12 13 13
13 12 7 10 6 5 5 4 5 5 4 3 3 6 8 9 12 8 4 8 6 5 2 4 5 5 6 9 5 4 12 11 9 4 13 7 8 11 10 16 16 13 12 14
15 15 10 7 7 7 6 6 5 5 7 8 7 4 4 5 7 6 5 4 5 6 4 5 6 6 14 7 8 4 5 7 10 14 19 19 20 22 15 13 13 12 11 12
14 12 8 7 5 7 9 9 4 11 8 4 5 5 5 5 4 6 4 5 5 4 5 8 6 7 9 8 8 5 3 1 6 9 11 12 16 12 11 13 9 10 10 10
7 8 6 8 9 9 6 10 11 9 10 7 8 9 10 8 6 4 5 3 4 6 5 5 4 8 9 8 7 7 5 4 3 5 8 9 11 12 12 11 9 9 10 11
11 8 6 4 8 9 11 10 8 11 12 11 9 7 5 8 5 6 6 4 4 4 5 3 7 11 11 9 9 9 7 7 8 7 7 8 9 9 9 10 10 9 10 10
7 12 17 14 14 9 8 9 7 11 10 10 8 6 7 4 5 6 6 8 9 8 9 10 12 12 10 9 9 10 11 11 11 10 9 9 8 9 8 9 9 9 10 10
Wind_Direction
195 181 172 195 189 175 184 185 184 198 190 186 191 199 209 202 202 208 198 203 212 227 224 226 216 222 200 197 190 188 210 225 228 228 232 210 223 212 233 234 229 233 256 260
176 197 212 168 192 185 184 200 207 186 194 197 202 208 210 200 214 203 213 219 213 221 221 219 213 188 193 175 176 193 211 219 239 242 248 246 236 240 253 257 254 258 261 266
218 209 211 223 212 209 201 197 206 205 202 204 206 207 211 209 199 210 208 210 215 218 215 212 209 202 202 218 205 210 210 222 235 252 238 309 280 273 263 262 280 272 261 279
191 203 207 201 200 210 213 208 207 210 207 196 193 201 200 198 198 204 197 211 208 210 217 217 218 219 194 214 229 234 233 247 240 247 263 280 278 266 260 259 266 263 273 273
201 201 200 202 202 203 204 209 205 220 231 219 213 187 210 205 206 217 218 213 206 205 217 222 227 218 223 207 215 216 223 245 256 261 261 263 263 263 267 267 268 272 273 276
193 196 197 200 196 191 200 206 209 212 219 230 224 216 217 224 208 211 202 197 201 218 218 217 218 204 216 202 221 209 224 233 245 264 257 262 256 256 257 266 268 267 267 272
171 173 185 190 189 200 199 200 198 203 211 213 230 222 232 229 227 213 197 217 212 208 195 197 203 200 224 229 241 220 219 231 243 265 271 255 257 266 266 269 269 269 270 271
137 152 160 177 184 187 193 186 186 198 199 208 199 203 206 197 180 201 197 171 190 190 206 217 229 235 238 235 241 239 233 231 238 241 241 264 268 267 278 281 282 274 278 283
150 153 154 163 182 194 200 195 193 197 177 196 199 180 176 184 165 163 172 182 195 203 205 202 204 211 224 219 234 235 229 234 230 242 253 253 266 283 280 287 284 276 276 286
159 161 162 162 166 174 182 183 190 179 170 172 162 168 168 172 171 183 184 210 202 201 208 210 220 233 236 239 234 237 231 224 225 238 247 263 271 283 279 274 278 280 272 277
161 163 166 169 173 179 182 190 202 200 203 195 185 187 178 178 188 197 207 220 219 217 215 211 225 237 238 248 246 247 242 238 241 240 246 256 267 280 267 275 271 281 295 288
175 173 177 177 179 181 187 190 194 196 202 203 209 212 206 195 185 194 230 227 211 227 218 224 241 244 245 247 254 250 248 249 255 246 252 260 272 268 294 288 296 293 287 288
178 182 183 176 177 183 188 183 185 193 204 208 209 214 217 224 226 220 202 218 227 224 233 237 244 248 249 254 257 262 254 254 256 256 252 260 263 268 272 288 283 301 277 278
170 170 171 173 179 185 190 183 192 200 206 218 239 234 231 233 232 230 230 222 215 218 226 236 243 248 251 256 261 262 255 260 259 268 256 262 258 262 269 282 281 279 281 268
173 172 173 176 182 187 192 193 199 214 213 206 202 258 241 241 239 238 239 239 238 241 241 244 249 256 258 260 258 250 248 253 261 263 261 263 262 260 263 265 266 267 274 267
185 183 186 187 191 198 216 223 237 259 261 253 261 254 250 241 238 240 244 242 243 243 247 251 253 251 250 257 258 268 264 259 251 252 250 255 257 259 259 265 273 270 268 248
202 206 209 202 213 207 219 242 248 267 271 268 275 266 242 196 211 229 242 246 252 268 266 258 260 256 248 255 259 269 262 251 250 255 262 264 268 272 269 259 259 266 254 234
203 202 200 207 216 235 259 258 258 262 267 266 250 253 243 240 229 221 225 252 274 266 257 260 260 265 259 258 266 271 270 266 263 262 255 250 251 253 260 264 268 258 234 234
168 180 193 215 229 248 257 267 259 249 245 232 241 229 265 216 225 237 264 277 275 275 264 254 247 250 244 258 267 266 269 263 257 258 250 242 247 255 255 266 279 323 129 199
183 190 201 221 242 248 242 256 260 263 246 252 259 249 241 245 257 270 277 285 251 262 279 272 241 259 272 270 269 261 259 261 258 257 302 317 220 312 203 181 309 291 250 255
189 190 200 193 192 183 199 201 220 238 257 267 291 236 234 250 269 270 247 267 260 250 250 215 258 287 321 352 323 274 248 243 217 266 299 301 7 342 322 279 231 246 271 279
186 170 168 191 195 186 198 213 219 231 238 222 241 237 241 242 259 254 264 266 249 254 289 240 261 288 329 322 343 296 201 209 208 263 271 205 257 253 223 234 256 277 273 273
170 183 193 198 200 212 206 212 213 212 242 226 244 232 255 290 240 232 234 257 243 282 263 256 286 324 324 322 351 359 247 234 239 237 237 237 227 247 257 254 263 272 270 268
182 196 191 199 206 209 214 220 228 220 227 226 267 252 268 257 258 229 236 243 266 257 244 258 278 304 318 313 322 338 353 224 228 242 240 238 233 242 250 248 245 264 268 262
180 182 195 227 221 227 229 223 229 237 252 263 251 261 254 254 221 223 229 245 240 239 260 290 326 350 353 354 345 334 316 299 264 244 236 225 225 231 232 228 233 249 267 267
221 217 216 222 247 250 239 244 244 235 251 265 266 254 249 225 221 216 217 230 241 297 316 310 314 334 342 341 334 333 327 309 298 277 249 230 222 225 232 240 242 252 263 267
229 235 233 263 267 259 279 212 235 242 252 251 237 230 223 229 222 218 221 237 258 292 298 297 304 310 312 318 320 321 321 314 311 299 285 249 237 234 235 237 243 253 260 249